This is the latest recevied weather packets stored in our database for station/object N9ALD. If no packets are shown the sender has not sent any weather packets the latest 10 day(s).
| Time | Temp. | Humidity | Pressure | Rain* | Wind** | Luminosity | Snow |
|---|---|---|---|---|---|---|---|
| 1777698753 | 6.11° C | 80% | 1014.8 hPa | 0 mm | - | 0 W/m² | - |
| 1777698449 | 6.11° C | 80% | 1014.7 hPa | 0 mm | - | 0 W/m² | - |
| 1777698145 | 6.11° C | 80% | 1014.8 hPa | 0 mm | - | 0 W/m² | - |
| 1777697843 | 6.11° C | 80% | 1014.7 hPa | 0 mm | - | 0 W/m² | - |
| 1777697539 | 6.11° C | 82% | 1014.8 hPa | 0 mm | - | 0 W/m² | - |
| 1777697236 | 6.11° C | 83% | 1014.8 hPa | 0 mm | - | 0 W/m² | - |
| 1777696932 | 5.56° C | 88% | 1014.8 hPa | 0 mm | - | 0 W/m² | - |
| 1777696630 | 5° C | 91% | 1014.7 hPa | 0 mm | - | 0 W/m² | - |
| 1777696328 | 5° C | 91% | 1014.8 hPa | 0 mm | - | 0 W/m² | - |
| 1777696026 | 5° C | 91% | 1014.8 hPa | 0 mm | - | 0 W/m² | - |
| 1777695724 | 5° C | 91% | 1014.6 hPa | 0 mm | - | 0 W/m² | - |
| 1777695421 | 5° C | 91% | 1014.4 hPa | 0 mm | - | 0 W/m² | - |
| 1777695119 | 5° C | 91% | 1014.7 hPa | 0 mm | - | 0 W/m² | - |
| 1777694815 | 4.44° C | 91% | 1014.9 hPa | 0 mm | - | 0 W/m² | - |
| 1777694513 | 4.44° C | 89% | 1014.7 hPa | 0 mm | - | 0 W/m² | - |
| 1777694209 | 4.44° C | 88% | 1014.9 hPa | 0 mm | - | 0 W/m² | - |
| 1777693906 | 4.44° C | 88% | 1014.9 hPa | 0 mm | - | 0 W/m² | - |
| 1777693604 | 5° C | 88% | 1014.7 hPa | 0 mm | - | 0 W/m² | - |
| 1777693302 | 5° C | 88% | 1014.7 hPa | 0 mm | - | 0 W/m² | - |
| 1777692999 | 5° C | 87% | 1014.6 hPa | 0 mm | - | 0 W/m² | - |
| 1777692697 | 5° C | 87% | 1014.6 hPa | 0 mm | - | 0 W/m² | - |
| 1777692393 | 5° C | 86% | 1014.8 hPa | 0 mm | - | 0 W/m² | - |
| 1777692089 | 5° C | 86% | 1014.7 hPa | 0 mm | - | 0 W/m² | - |
| 1777691787 | 5° C | 84% | 1014.6 hPa | 0 mm | - | 0 W/m² | - |
| 1777691485 | 5° C | 83% | 1014.8 hPa | 0 mm | - | 0 W/m² | - |
* Rain latest hour (hover to see other rain measurements)
** Current wind speed in m/s (hover to see current wind gust speed)